Location: Newark
(40.5782°N, 9.2582°E)
Time: 19:14:21
(UTC+00:00)

ISS - Visible Passes

Search period start: 17 September 2019 00:00
Search period end: 27 September 2019 00:00
Orbit: 411 x 421 km, 51.6° (Epoch: 18 September)

Date Brightness Start Highest point End Pass type
(mag) Time Alt. Az. Time Alt. Az. Time Alt. Az.
17 Sep -1.1 03:35:24 10° S 03:35:24 10° S 03:35:26 10° S visible
17 Sep -1.6 18:36:30 10° S 18:37:17 13° SSE 18:37:17 13° SSE visible
18 Sep -2.2 19:23:12 10° SW 19:24:55 28° SW 19:24:55 28° SW visible
19 Sep -3.5 18:34:54 10° SSW 18:38:05 45° SE 18:39:15 30° E visible
19 Sep -0.3 20:12:04 10° W 20:12:12 11° W 20:12:12 11° W visible
20 Sep -2.5 19:23:11 10° W 19:26:18 38° NNW 19:26:18 38° NNW visible
21 Sep -3.4 18:34:28 10° WSW 18:37:45 62° NNW 18:40:09 17° NE visible
21 Sep -0.2 20:12:48 10° WNW 20:13:05 11° NW 20:13:05 11° NW visible
22 Sep -3.8 17:45:56 10° SW 17:49:14 76° SE 17:52:33 10° NE visible
22 Sep -1.5 19:23:42 10° WNW 19:26:17 20° NNW 19:26:46 20° N visible
23 Sep -1.9 18:34:40 10° W 18:37:35 27° NNW 18:40:19 11° NE visible
24 Sep -2.6 17:45:46 10° WSW 17:48:56 40° NNW 17:52:06 10° NE visible
24 Sep -1.1 19:24:28 10° NW 19:26:21 14° N 19:26:40 14° N visible
25 Sep -1.2 18:35:17 10° WNW 18:37:33 17° NNW 18:39:49 10° NNE visible
26 Sep -1.6 17:46:09 10° WNW 17:48:47 21° NNW 17:51:25 10° NNE visible
26 Sep -0.9 19:25:00 10° NNW 19:26:13 12° N 19:26:13 12° N visible
